| time (UTC) | temp C | wind direction | speed KPH | gust KPH | rain 1hr cm | rain 24hr cm | rain mn cm | humidity % | barometer mb |
| 20260505124705 | 19 | 255 | 1.6 | 4.8 | 0.00 | 0.00 | 0.00 | 64 | 1005.3 |
| 20260505124204 | 19 | 315 | 0.0 | 8.0 | 0.00 | 0.00 | 0.00 | 62 | 1005.3 |
| 20260505123704 | 19 | 159 | 0.0 | 4.8 | 0.00 | 0.00 | 0.00 | 64 | 1005.3 |
| 20260505123204 | 19 | 199 | 0.0 | 1.6 | 0.00 | 0.00 | 0.00 | 65 | 1005.3 |
| 20260505122704 | 18 | 276 | 0.0 | 1.6 | 0.00 | 0.00 | 0.00 | 66 | 1005.4 |
| 20260505121704 | 18 | 231 | 0.0 | 0.0 | 0.00 | 0.00 | 0.00 | 66 | 1005.4 |
| 20260505121204 | 18 | 234 | 0.0 | 3.2 | 0.00 | 0.00 | 0.00 | 66 | 1005.3 |
| 20260505115704 | 17 | 240 | 0.0 | 0.0 | 0.00 | 0.00 | 0.00 | 69 | 1005.5 |
| 20260505115204 | 17 | 241 | 0.0 | 0.0 | 0.00 | 0.00 | 0.00 | 70 | 1005.4 |
| 20260505114703 | 17 | 220 | 0.0 | 3.2 | 0.00 | 0.00 | 0.00 | 70 | 1005.3 |
| 20260505114204 | 17 | 226 | 0.0 | 0.0 | 0.00 | 0.00 | 0.00 | 70 | 1005.4 |
| 20260505113703 | 17 | 229 | 0.0 | 0.0 | 0.00 | 0.00 | 0.00 | 70 | 1005.3 |
| 20260505113203 | 17 | 228 | 0.0 | 0.0 | 0.00 | 0.00 | 0.00 | 69 | 1005.4 |
| 20260505112704 | 17 | 244 | 0.0 | 1.6 | 0.00 | 0.00 | 0.00 | 69 | 1005.2 |
| 20260505111704 | 17 | 290 | 0.0 | 4.8 | 0.00 | 0.00 | 0.00 | 70 | 1005.3 |
| 20260505111204 | 16 | 216 | 0.0 | 4.8 | 0.00 | 0.00 | 0.00 | 71 | 1005.3 |
| 20260505102204 | 15 | 284 | 0.0 | 0.0 | 0.00 | 0.00 | 0.00 | 74 | 1004.8 |
| 20260505101704 | 15 | 230 | 0.0 | 0.0 | 0.00 | 0.00 | 0.00 | 74 | 1004.6 |
| 20260505100203 | 16 | 227 | 0.0 | 3.2 | 0.00 | 0.00 | 0.00 | 74 | 1004.6 |
| 20260505095704 | 16 | 231 | 0.0 | 0.0 | 0.00 | 0.00 | 0.00 | 73 | 1004.5 |
| 20260505095204 | 16 | 250 | 0.0 | 0.0 | 0.00 | 0.00 | 0.00 | 73 | 1004.5 |
| 20260505094703 | 16 | 210 | 0.0 | 0.0 | 0.00 | 0.00 | 0.00 | 73 | 1004.4 |
| 20260505094203 | 16 | 213 | 0.0 | 0.0 | 0.00 | 0.00 | 0.00 | 73 | 1004.4 |
| 20260505093203 | 16 | 253 | 0.0 | 0.0 | 0.00 | 0.00 | 0.00 | 73 | 1004.2 |
| 20260505092204 | 16 | 307 | 0.0 | 0.0 | 0.00 | 0.00 | 0.00 | 73 | 1004.0 |
| 20260505091704 | 16 | 242 | 0.0 | 0.0 | 0.00 | 0.00 | 0.00 | 73 | 1004.0 |
| 20260505091204 | 16 | 236 | 0.0 | 0.0 | 0.00 | 0.00 | 0.00 | 74 | 1004.0 |
| 20260505090703 | 16 | 237 | 0.0 | 0.0 | 0.00 | 0.00 | 0.00 | 74 | 1004.0 |
| 20260505090204 | 16 | 240 | 0.0 | 0.0 | 0.00 | 0.00 | 0.00 | 75 | 1003.9 |
| 20260505085703 | 16 | 230 | 0.0 | 1.6 | 0.00 | 0.00 | 0.00 | 75 | 1003.9 |
| 20260505084704 | 16 | 215 | 0.0 | 0.0 | 0.00 | 0.00 | 0.00 | 76 | 1004.1 |
| 20260505084204 | 16 | 241 | 0.0 | 0.0 | 0.00 | 0.00 | 0.00 | 76 | 1004.0 |
| 20260505083704 | 16 | 245 | 0.0 | 0.0 | 0.00 | 0.00 | 0.00 | 76 | 1004.0 |
| 20260505083203 | 16 | 292 | 0.0 | 0.0 | 0.00 | 0.00 | 0.00 | 76 | 1004.0 |
| 20260505082703 | 16 | 215 | 0.0 | 0.0 | 0.00 | 0.00 | 0.00 | 76 | 1004.0 |
| 20260505081203 | 16 | 212 | 0.0 | 0.0 | 0.00 | 0.00 | 0.00 | 75 | 1004.0 |
| 20260505080704 | 16 | 217 | 0.0 | 0.0 | 0.00 | 0.00 | 0.00 | 74 | 1004.0 |
| 20260505080203 | 16 | 253 | 0.0 | 0.0 | 0.00 | 0.00 | 0.00 | 74 | 1004.0 |
| 20260505075704 | 16 | 209 | 0.0 | 0.0 | 0.00 | 0.00 | 0.00 | 74 | 1004.0 |
| 20260505075204 | 16 | 235 | 0.0 | 0.0 | 0.00 | 0.00 | 0.00 | 74 | 1004.0 |
| 20260505074704 | 16 | 230 | 0.0 | 0.0 | 0.00 | 0.00 | 0.00 | 73 | 1003.9 |
| 20260505074204 | 16 | 266 | 0.0 | 4.8 | 0.00 | 0.00 | 0.00 | 73 | 1003.8 |
| 20260505073204 | 16 | 253 | 0.0 | 0.0 | 0.00 | 0.00 | 0.00 | 72 | 1003.7 |
| 20260505072704 | 16 | 225 | 0.0 | 0.0 | 0.00 | 0.00 | 0.00 | 72 | 1003.7 |
| 20260505072204 | 16 | 256 | 0.0 | 0.0 | 0.00 | 0.00 | 0.00 | 72 | 1003.7 |
| 20260505071203 | 16 | 275 | 0.0 | 0.0 | 0.00 | 0.00 | 0.00 | 71 | 1003.6 |
| 20260505070204 | 17 | 292 | 0.0 | 0.0 | 0.00 | 0.00 | 0.00 | 71 | 1003.7 |
| 20260505065704 | 17 | 218 | 0.0 | 3.2 | 0.00 | 0.00 | 0.00 | 70 | 1003.8 |
| 20260505065204 | 17 | 256 | 0.0 | 1.6 | 0.00 | 0.00 | 0.00 | 70 | 1003.8 |
| 20260505064704 | 17 | 301 | 0.0 | 1.6 | 0.00 | 0.00 | 0.00 | 70 | 1003.8 |
| 20260505064204 | 17 | 268 | 0.0 | 0.0 | 0.00 | 0.00 | 0.00 | 70 | 1003.9 |
| 20260505063204 | 16 | 265 | 0.0 | 0.0 | 0.00 | 0.00 | 0.00 | 70 | 1003.8 |
| 20260505062704 | 16 | 242 | 0.0 | 0.0 | 0.00 | 0.00 | 0.00 | 71 | 1003.8 |
| 20260505062204 | 16 | 231 | 0.0 | 0.0 | 0.00 | 0.00 | 0.00 | 71 | 1003.9 |
| 20260505061704 | 16 | 217 | 0.0 | 0.0 | 0.00 | 0.00 | 0.00 | 71 | 1003.9 |
| 20260505061203 | 16 | 212 | 0.0 | 0.0 | 0.00 | 0.00 | 0.00 | 71 | 1004.0 |
| 20260505060704 | 16 | 220 | 0.0 | 0.0 | 0.00 | 0.00 | 0.00 | 71 | 1004.0 |
| 20260505060204 | 16 | 208 | 0.0 | 0.0 | 0.00 | 0.00 | 0.00 | 71 | 1004.2 |
| 20260505055704 | 16 | 194 | 0.0 | 0.0 | 0.00 | 0.00 | 0.00 | 71 | 1004.3 |
| 20260505055204 | 16 | 299 | 0.0 | 0.0 | 0.00 | 0.00 | 0.00 | 71 | 1004.5 |
| 20260505054203 | 16 | 247 | 0.0 | 0.0 | 0.00 | 0.00 | 0.00 | 71 | 1004.4 |
| 20260505053704 | 16 | 217 | 0.0 | 0.0 | 0.00 | 0.00 | 0.00 | 71 | 1004.5 |
| 20260505053204 | 16 | 218 | 0.0 | 0.0 | 0.00 | 0.00 | 0.00 | 71 | 1004.5 |
| 20260505052704 | 16 | 218 | 0.0 | 0.0 | 0.00 | 0.00 | 0.00 | 70 | 1004.6 |
| 20260505052204 | 16 | 211 | 0.0 | 0.0 | 0.00 | 0.00 | 0.00 | 70 | 1004.7 |
| 20260505051704 | 16 | 217 | 0.0 | 0.0 | 0.00 | 0.00 | 0.00 | 71 | 1004.6 |
| 20260505051204 | 16 | 288 | 0.0 | 0.0 | 0.00 | 0.00 | 0.00 | 70 | 1004.7 |
| 20260505050704 | 16 | 203 | 0.0 | 0.0 | 0.00 | 0.00 | 0.00 | 70 | 1004.7 |
| 20260505050203 | 16 | 238 | 0.0 | 0.0 | 0.00 | 0.00 | 0.00 | 70 | 1004.7 |
| 20260505041704 | 16 | 220 | 0.0 | 0.0 | 0.00 | 0.00 | 0.00 | 70 | 1004.9 |
| 20260505041204 | 16 | 243 | 0.0 | 0.0 | 0.00 | 0.00 | 0.00 | 70 | 1004.9 |
| 20260505040704 | 16 | 239 | 0.0 | 0.0 | 0.00 | 0.00 | 0.00 | 70 | 1005.0 |
| 20260505040203 | 16 | 176 | 0.0 | 0.0 | 0.00 | 0.00 | 0.00 | 70 | 1005.0 |
| 20260505035703 | 16 | 263 | 0.0 | 0.0 | 0.00 | 0.00 | 0.00 | 70 | 1005.0 |
| 20260505035203 | 16 | 275 | 0.0 | 0.0 | 0.00 | 0.00 | 0.00 | 70 | 1004.9 |
| 20260505034704 | 16 | 306 | 0.0 | 0.0 | 0.00 | 0.00 | 0.00 | 70 | 1004.9 |
| 20260505034204 | 16 | 269 | 0.0 | 0.0 | 0.00 | 0.00 | 0.00 | 70 | 1004.9 |
| 20260505033703 | 16 | 233 | 0.0 | 0.0 | 0.00 | 0.00 | 0.00 | 70 | 1004.9 |
| 20260505033203 | 16 | 251 | 0.0 | 0.0 | 0.00 | 0.00 | 0.00 | 70 | 1004.9 |
| 20260505031704 | 16 | 220 | 0.0 | 0.0 | 0.00 | 0.00 | 0.00 | 70 | 1004.9 |
| 20260505031204 | 16 | 228 | 0.0 | 0.0 | 0.00 | 0.00 | 0.00 | 69 | 1004.9 |
| 20260505030703 | 16 | 253 | 0.0 | 0.0 | 0.00 | 0.00 | 0.00 | 69 | 1004.9 |
| 20260505030204 | 16 | 259 | 0.0 | 0.0 | 0.00 | 0.00 | 0.00 | 69 | 1005.1 |
| 20260505025704 | 16 | 219 | 0.0 | 0.0 | 0.00 | 0.00 | 0.00 | 69 | 1005.0 |
| 20260505025203 | 16 | 229 | 0.0 | 0.0 | 0.00 | 0.00 | 0.00 | 68 | 1005.1 |
| 20260505024703 | 17 | 231 | 0.0 | 0.0 | 0.00 | 0.00 | 0.00 | 68 | 1005.1 |
| 20260505024204 | 17 | 246 | 0.0 | 0.0 | 0.00 | 0.00 | 0.00 | 67 | 1005.2 |
| 20260505023704 | 17 | 268 | 0.0 | 0.0 | 0.00 | 0.00 | 0.00 | 67 | 1005.2 |
| 20260505023204 | 17 | 222 | 0.0 | 0.0 | 0.00 | 0.00 | 0.00 | 66 | 1005.2 |
| 20260505022703 | 17 | 232 | 0.0 | 0.0 | 0.00 | 0.00 | 0.00 | 66 | 1005.2 |
| 20260505022205 | 17 | 219 | 0.0 | 0.0 | 0.00 | 0.00 | 0.00 | 66 | 1005.3 |
| 20260505021704 | 17 | 236 | 0.0 | 0.0 | 0.00 | 0.00 | 0.00 | 65 | 1005.3 |
| 20260505021205 | 17 | 221 | 0.0 | 0.0 | 0.00 | 0.00 | 0.00 | 65 | 1005.3 |
| 20260505020704 | 17 | 227 | 0.0 | 0.0 | 0.00 | 0.00 | 0.00 | 65 | 1005.3 |
| 20260505020204 | 17 | 207 | 0.0 | 0.0 | 0.00 | 0.00 | 0.00 | 64 | 1005.3 |
| 20260505015705 | 18 | 233 | 0.0 | 0.0 | 0.00 | 0.00 | 0.00 | 63 | 1005.2 |
| 20260505015204 | 18 | 210 | 0.0 | 0.0 | 0.00 | 0.00 | 0.00 | 63 | 1005.3 |
| 20260505014704 | 18 | 219 | 0.0 | 0.0 | 0.00 | 0.00 | 0.00 | 63 | 1005.3 |
| 20260505014205 | 18 | 218 | 0.0 | 0.0 | 0.00 | 0.00 | 0.00 | 62 | 1005.2 |
| 20260505013703 | 18 | 249 | 0.0 | 1.6 | 0.00 | 0.00 | 0.00 | 62 | 1005.2 |
| 20260505013203 | 18 | 223 | 0.0 | 1.6 | 0.00 | 0.00 | 0.00 | 62 | 1005.2 |
| 20260505012704 | 18 | 217 | 0.0 | 0.0 | 0.00 | 0.00 | 0.00 | 62 | 1005.2 |
| 20260505012204 | 18 | 228 | 0.0 | 0.0 | 0.00 | 0.00 | 0.00 | 61 | 1005.1 |
| 20260505011704 | 18 | 291 | 0.0 | 0.0 | 0.00 | 0.00 | 0.00 | 61 | 1005.0 |
| 20260505011203 | 18 | 278 | 0.0 | 0.0 | 0.00 | 0.00 | 0.00 | 60 | 1004.9 |
| 20260505010703 | 18 | 227 | 0.0 | 4.8 | 0.00 | 0.00 | 0.00 | 60 | 1004.8 |
| 20260505005703 | 18 | 218 | 0.0 | 8.0 | 0.00 | 0.00 | 0.00 | 60 | 1004.7 |
| 20260505005205 | 18 | 213 | 0.0 | 1.6 | 0.00 | 0.00 | 0.00 | 60 | 1004.7 |
| 20260505004204 | 19 | 233 | 0.0 | 3.2 | 0.00 | 0.00 | 0.00 | 59 | 1004.5 |
| 20260505003704 | 19 | 234 | 0.0 | 0.0 | 0.00 | 0.00 | 0.00 | 59 | 1004.5 |
| 20260505003204 | 19 | 255 | 0.0 | 3.2 | 0.00 | 0.00 | 0.00 | 59 | 1004.4 |
| 20260505002703 | 19 | 278 | 0.0 | 3.2 | 0.00 | 0.00 | 0.00 | 58 | 1004.3 |
| 20260505001703 | 20 | 263 | 0.0 | 0.0 | 0.00 | 0.00 | 0.00 | 58 | 1004.2 |
| 20260505000704 | 20 | 213 | 0.0 | 3.2 | 0.00 | 0.00 | 0.00 | 56 | 1004.1 |
| 20260505000204 | 20 | 203 | 0.0 | 4.8 | 0.00 | 0.00 | 0.00 | 57 | 1004.0 |
| 20260504235703 | 20 | 211 | 0.0 | 3.2 | 0.00 | 0.00 | 0.00 | 56 | 1003.9 |
| 20260504235203 | 20 | 221 | 0.0 | 0.0 | 0.00 | 0.00 | 0.00 | 56 | 1004.0 |
| 20260504234203 | 20 | 269 | 0.0 | 0.0 | 0.00 | 0.00 | 0.00 | 55 | 1004.1 |
| 20260504233705 | 20 | 266 | 0.0 | 0.0 | 0.00 | 0.00 | 0.00 | 55 | 1004.0 |
| 20260504233204 | 20 | 218 | 0.0 | 0.0 | 0.00 | 0.00 | 0.00 | 55 | 1004.0 |
| 20260504232704 | 20 | 253 | 0.0 | 0.0 | 0.00 | 0.00 | 0.00 | 55 | 1004.1 |
| 20260504232203 | 20 | 289 | 0.0 | 4.8 | 0.00 | 0.00 | 0.00 | 55 | 1004.0 |
| 20260504231703 | 20 | 4 | 0.0 | 9.7 | 0.00 | 0.00 | 0.00 | 56 | 1003.9 |
| 20260504231203 | 20 | 208 | 0.0 | 0.0 | 0.00 | 0.00 | 0.00 | 57 | 1003.9 |
| 20260504230705 | 21 | 230 | 0.0 | 4.8 | 0.00 | 0.00 | 0.00 | 57 | 1004.1 |
| 20260504225204 | 21 | 209 | 0.0 | 1.6 | 0.00 | 0.00 | 0.00 | 55 | 1004.2 |
| 20260504224704 | 21 | 293 | 0.0 | 1.6 | 0.00 | 0.00 | 0.00 | 54 | 1004.3 |
| 20260504224204 | 21 | 197 | 3.2 | 9.7 | 0.00 | 0.00 | 0.00 | 54 | 1004.4 |
| 20260504223704 | 21 | 200 | 1.6 | 4.8 | 0.00 | 0.00 | 0.00 | 53 | 1004.5 |
| 20260504223205 | 21 | 208 | 0.0 | 0.0 | 0.00 | 0.00 | 0.00 | 54 | 1004.6 |
| 20260504222704 | 21 | 218 | 0.0 | 0.0 | 0.00 | 0.00 | 0.00 | 55 | 1004.6 |
| 20260504221703 | 21 | 307 | 0.0 | 1.6 | 0.00 | 0.00 | 0.00 | 53 | 1004.6 |
| 20260504220703 | 21 | 248 | 0.0 | 0.0 | 0.00 | 0.00 | 0.00 | 56 | 1004.7 |
| 20260504220204 | 20 | 232 | 0.0 | 4.8 | 0.00 | 0.00 | 0.00 | 55 | 1004.7 |
| 20260504215704 | 21 | 219 | 0.0 | 0.0 | 0.00 | 0.00 | 0.00 | 55 | 1004.7 |
| 20260504214704 | 21 | 235 | 0.0 | 3.2 | 0.00 | 0.00 | 0.00 | 54 | 1004.6 |
| 20260504214204 | 21 | 196 | 0.0 | 0.0 | 0.00 | 0.00 | 0.00 | 54 | 1004.6 |
| 20260504213704 | 21 | 283 | 0.0 | 3.2 | 0.00 | 0.00 | 0.00 | 53 | 1004.6 |
| 20260504213203 | 21 | 270 | 0.0 | 0.0 | 0.00 | 0.00 | 0.00 | 54 | 1004.6 |
| 20260504212704 | 21 | 294 | 0.0 | 0.0 | 0.00 | 0.00 | 0.00 | 53 | 1004.6 |
| 20260504212203 | 21 | 196 | 0.0 | 1.6 | 0.00 | 0.00 | 0.00 | 52 | 1004.5 |
| 20260504211204 | 21 | 223 | 1.6 | 12.9 | 0.00 | 0.00 | 0.00 | 51 | 1004.4 |
| 20260504210704 | 21 | 208 | 0.0 | 4.8 | 0.00 | 0.00 | 0.00 | 52 | 1004.5 |
| 20260504210204 | 21 | 253 | 0.0 | 3.2 | 0.00 | 0.00 | 0.00 | 52 | 1004.5 |
| 20260504205703 | 22 | 196 | 0.0 | 4.8 | 0.00 | 0.00 | 0.00 | 51 | 1004.4 |
| 20260504205204 | 22 | 277 | 0.0 | 0.0 | 0.00 | 0.00 | 0.00 | 50 | 1004.5 |
| 20260504203203 | 22 | 224 | 1.6 | 8.0 | 0.00 | 0.00 | 0.00 | 50 | 1004.6 |
| 20260504202703 | 22 | 245 | 0.0 | 8.0 | 0.00 | 0.00 | 0.00 | 49 | 1004.6 |
| 20260504202203 | 22 | 283 | 0.0 | 8.0 | 0.00 | 0.00 | 0.00 | 48 | 1004.7 |
| 20260504201703 | 22 | 262 | 1.6 | 4.8 | 0.00 | 0.00 | 0.00 | 48 | 1004.6 |
| 20260504201203 | 22 | 286 | 0.0 | 3.2 | 0.00 | 0.00 | 0.00 | 48 | 1004.8 |
| 20260504200203 | 22 | 229 | 0.0 | 8.0 | 0.00 | 0.00 | 0.00 | 49 | 1004.9 |
| 20260504195704 | 22 | 302 | 0.0 | 4.8 | 0.00 | 0.00 | 0.00 | 49 | 1005.0 |
| 20260504195204 | 22 | 348 | 1.6 | 9.7 | 0.00 | 0.00 | 0.00 | 48 | 1005.0 |
| 20260504194704 | 22 | 247 | 0.0 | 4.8 | 0.00 | 0.00 | 0.00 | 49 | 1005.0 |
| 20260504194204 | 23 | 282 | 0.0 | 3.2 | 0.00 | 0.00 | 0.00 | 49 | 1005.1 |
| 20260504193704 | 23 | 203 | 1.6 | 8.0 | 0.00 | 0.00 | 0.00 | 50 | 1005.1 |
| 20260504193204 | 22 | 179 | 1.6 | 4.8 | 0.00 | 0.00 | 0.00 | 51 | 1005.2 |
| 20260504192703 | 22 | 212 | 1.6 | 4.8 | 0.00 | 0.00 | 0.00 | 51 | 1005.3 |
| 20260504192203 | 22 | 210 | 1.6 | 8.0 | 0.00 | 0.00 | 0.00 | 50 | 1005.4 |
| 20260504191704 | 22 | 246 | 1.6 | 8.0 | 0.00 | 0.00 | 0.00 | 48 | 1005.5 |
| 20260504190703 | 22 | 252 | 1.6 | 11.3 | 0.00 | 0.00 | 0.00 | 50 | 1005.4 |
| 20260504185704 | 22 | 194 | 1.6 | 8.0 | 0.00 | 0.00 | 0.00 | 50 | 1005.5 |
| 20260504184704 | 22 | 293 | 0.0 | 11.3 | 0.00 | 0.00 | 0.00 | 49 | 1005.7 |
| 20260504184204 | 22 | 306 | 0.0 | 8.0 | 0.00 | 0.00 | 0.00 | 49 | 1005.8 |
| 20260504183703 | 22 | 317 | 0.0 | 4.8 | 0.00 | 0.00 | 0.00 | 49 | 1005.9 |
| 20260504182703 | 22 | 178 | 1.6 | 9.7 | 0.00 | 0.00 | 0.00 | 49 | 1005.9 |
| 20260504181204 | 22 | 268 | 0.0 | 9.7 | 0.00 | 0.00 | 0.00 | 51 | 1006.1 |
| 20260504180703 | 22 | 260 | 3.2 | 9.7 | 0.00 | 0.00 | 0.00 | 49 | 1006.3 |
| 20260504180203 | 21 | 229 | 0.0 | 14.5 | 0.00 | 0.00 | 0.00 | 53 | 1006.3 |
| 20260504175703 | 21 | 158 | 3.2 | 11.3 | 0.00 | 0.00 | 0.00 | 49 | 1006.3 |
| 20260504175204 | 21 | 211 | 1.6 | 9.7 | 0.00 | 0.00 | 0.00 | 50 | 1006.4 |
| 20260504174704 | 21 | 164 | 3.2 | 9.7 | 0.00 | 0.00 | 0.00 | 52 | 1006.4 |
| 20260504174203 | 21 | 191 | 0.0 | 1.6 | 0.00 | 0.00 | 0.00 | 52 | 1006.5 |
| 20260504173704 | 20 | 223 | 0.0 | 8.0 | 0.00 | 0.00 | 0.00 | 50 | 1006.6 |
| 20260504173204 | 21 | 204 | 3.2 | 11.3 | 0.00 | 0.00 | 0.00 | 48 | 1006.7 |
| 20260504172704 | 21 | 193 | 4.8 | 14.5 | 0.00 | 0.00 | 0.00 | 48 | 1006.7 |
| 20260504171704 | 21 | 229 | 0.0 | 3.2 | 0.00 | 0.00 | 0.00 | 49 | 1006.6 |
| 20260504171205 | 21 | 185 | 1.6 | 4.8 | 0.00 | 0.00 | 0.00 | 50 | 1006.6 |
| 20260504170703 | 21 | 196 | 0.0 | 4.8 | 0.00 | 0.00 | 0.00 | 49 | 1006.8 |
| 20260504170203 | 21 | 197 | 1.6 | 4.8 | 0.00 | 0.00 | 0.00 | 50 | 1006.8 |
| 20260504150704 | 17 | 244 | 0.0 | 0.0 | 0.00 | 0.00 | 0.00 | 54 | 1008.5 |
| 20260504150204 | 17 | 263 | 0.0 | 3.2 | 0.00 | 0.00 | 0.00 | 55 | 1008.5 |
| 20260504141204 | 16 | 167 | 3.2 | 11.3 | 0.00 | 0.00 | 0.00 | 57 | 1008.6 |
| 20260504140704 | 15 | 199 | 0.0 | 0.0 | 0.00 | 0.00 | 0.00 | 58 | 1008.7 |
| 20260504140204 | 15 | 181 | 0.0 | 1.6 | 0.00 | 0.00 | 0.00 | 57 | 1008.7 |